Location: Caltech
(34.1382°N, 118.1253°W)
Time: 15:42:40

JAS-1B - Visible Passes

Search period start: 01 December 2015 00:00
Search period end: 11 December 2015 00:00
Orbit: 912 x 1743 km, 99.0° (Epoch: 01 December)

Date Brightness Start Highest point End Pass type
(mag) Time Alt. Az. Time Alt. Az. Time Alt. Az.
03 Dec 10.3 06:01:44 10° E 06:05:45 14° NE 06:10:29 10° NNE visible
04 Dec 10.1 06:18:30 10° E 06:24:24 19° ENE 06:30:50 10° NNE visible
08 Dec 10.4 05:48:48 10° ENE 05:50:53 11° NE 05:53:48 10° NE visible
09 Dec 10.2 06:04:40 10° E 06:09:30 16° ENE 06:14:54 10° NNE visible
